Simultaneous Nadir Overpasses (SNOs) Predictions

Prediction of SNOs between NOAA-20 and AQUA Satellite Orbit:

Table of predicted SNOs for the next 14.0 days since TLE Epoch: 4/3/2021
Index Date (NOAA-20) Time (NOAA-20) Lat,Lon (NOAA-20) SZA (NOAA-20 ) Date (AQUA) Time (AQUA) Lat,Lon (AQUA) SZA (AQUA ) Distance(km) Time Diff (sec)
1 04/05/2021 13:39:38 -75.05, 31.16 87.68 04/05/2021 13:40:43 -75.05, 31.18 87.74 0.45 65
2 04/05/2021 14:29:58 76.17,-157.95 90.96 04/05/2021 14:29:46 76.18,-157.91 90.97 1.17 12
3 04/08/2021 05:56:29 -75.32, 147.71 89.02 04/08/2021 05:57:06 -75.33, 147.81 89.08 2.81 37
4 04/08/2021 06:46:50 76.38, -41.44 89.68 04/08/2021 06:46:10 76.39, -41.34 89.69 2.97 40
5 04/10/2021 22:13:09 -76.09, -94.04 90.95 04/10/2021 22:13:19 -76.09, -94.09 90.95 1.32 10
6 04/10/2021 23:03:32 77.03, 76.83 87.86 04/10/2021 23:02:25 77.03, 76.76 87.93 1.87 67
7 04/13/2021 13:39:38 75.23,-148.32 89.10 04/13/2021 13:40:37 75.23,-148.33 89.05 0.24 59
8 04/13/2021 14:29:59 -76.39, 22.77 92.31 04/13/2021 14:29:41 -76.39, 22.76 92.29 0.30 18
9 04/16/2021 05:56:24 75.68, -31.19 87.60 04/16/2021 05:56:55 75.68, -31.18 87.57 0.19 31



Historial Predications of SNOs between NOAA-20 and AQUA
